| time (UTC) | temp F | wind direction | speed knots | gust knots | rain 1hr in | rain 24hr in | rain mn in | humidity % | barometer mb |
| 20260505081001 | 71 | 38 | 0.0 | 0.0 | 0.00 | 0.00 | 0.00 | 91 | 1013.6 |
| 20260505080502 | 71 | 38 | 0.0 | 0.0 | 0.00 | 0.00 | 0.00 | 90 | 1013.6 |
| 20260505080100 | 71 | 38 | 0.0 | 0.0 | 0.00 | 0.00 | 0.00 | 91 | 1013.4 |
| 20260505080007 | 71 | 38 | 0.0 | 0.0 | 0.00 | 0.00 | 0.00 | 90 | 1013.6 |
| 20260505080003 | 71 | 38 | 0.0 | 0.0 | 0.00 | 0.00 | 0.00 | 90 | 1013.3 |
| 20260505075602 | 72 | 38 | 0.0 | 0.0 | 0.00 | 0.00 | 0.00 | 90 | 1013.4 |
| 20260505075500 | 72 | 38 | 0.0 | 0.0 | 0.00 | 0.00 | 0.00 | 90 | 1013.6 |
| 20260505075159 | 72 | 38 | 0.0 | 0.0 | 0.00 | 0.00 | 0.00 | 90 | 1013.3 |
| 20260505074559 | 72 | 38 | 0.0 | 0.0 | 0.00 | 0.00 | 0.00 | 90 | 1013.3 |
| 20260505074059 | 72 | 38 | 0.0 | 0.0 | 0.00 | 0.00 | 0.00 | 90 | 1013.2 |
| 20260505074000 | 72 | 38 | 0.0 | 0.0 | 0.00 | 0.00 | 0.00 | 90 | 1013.5 |
| 20260505073559 | 72 | 38 | 0.0 | 0.0 | 0.00 | 0.00 | 0.00 | 90 | 1013.2 |
| 20260505073501 | 72 | 38 | 0.0 | 0.0 | 0.00 | 0.00 | 0.00 | 90 | 1013.5 |
| 20260505073100 | 72 | 38 | 0.0 | 0.0 | 0.00 | 0.00 | 0.00 | 90 | 1013.2 |
| 20260505072603 | 72 | 38 | 0.0 | 0.0 | 0.00 | 0.00 | 0.00 | 89 | 1013.1 |
| 20260505072501 | 72 | 38 | 0.0 | 0.0 | 0.00 | 0.00 | 0.00 | 89 | 1013.3 |
| 20260505072058 | 72 | 38 | 0.0 | 0.0 | 0.00 | 0.00 | 0.00 | 90 | 1013.0 |
| 20260505071559 | 72 | 38 | 0.0 | 0.0 | 0.00 | 0.00 | 0.00 | 89 | 1013.1 |
| 20260505071059 | 72 | 38 | 0.0 | 0.0 | 0.00 | 0.00 | 0.00 | 89 | 1013.2 |
| 20260505071000 | 72 | 38 | 0.0 | 0.0 | 0.00 | 0.00 | 0.00 | 89 | 1013.5 |
| 20260505070559 | 72 | 38 | 0.0 | 0.0 | 0.00 | 0.00 | 0.00 | 89 | 1013.2 |
| 20260505070501 | 72 | 38 | 0.0 | 0.0 | 0.00 | 0.00 | 0.00 | 88 | 1013.4 |
| 20260505070059 | 73 | 38 | 0.0 | 0.0 | 0.00 | 0.00 | 0.00 | 88 | 1013.1 |
| 20260505065559 | 73 | 38 | 0.0 | 0.0 | 0.00 | 0.00 | 0.00 | 88 | 1013.2 |
| 20260505065059 | 73 | 38 | 0.0 | 0.0 | 0.00 | 0.00 | 0.00 | 88 | 1013.2 |
| 20260505065000 | 73 | 38 | 0.0 | 0.0 | 0.00 | 0.00 | 0.00 | 88 | 1013.4 |
| 20260505064600 | 73 | 38 | 0.0 | 0.0 | 0.00 | 0.00 | 0.00 | 88 | 1013.2 |
| 20260505064501 | 73 | 38 | 0.0 | 0.0 | 0.00 | 0.00 | 0.00 | 87 | 1013.4 |
| 20260505064059 | 73 | 38 | 0.0 | 0.0 | 0.00 | 0.00 | 0.00 | 87 | 1013.2 |
| 20260505063559 | 74 | 38 | 0.0 | 0.0 | 0.00 | 0.00 | 0.00 | 87 | 1013.2 |
| 20260505063500 | 74 | 38 | 0.0 | 0.0 | 0.00 | 0.00 | 0.00 | 87 | 1013.5 |
| 20260505063059 | 74 | 38 | 0.0 | 1.7 | 0.00 | 0.00 | 0.00 | 86 | 1013.2 |
| 20260505062559 | 74 | 38 | 0.0 | 1.7 | 0.00 | 0.00 | 0.00 | 86 | 1013.2 |
| 20260505062058 | 74 | 136 | 0.0 | 1.7 | 0.00 | 0.00 | 0.00 | 85 | 1013.2 |
| 20260505062000 | 74 | 136 | 0.9 | 1.7 | 0.00 | 0.00 | 0.00 | 85 | 1013.4 |
| 20260505061607 | 75 | 136 | 0.0 | 0.0 | 0.00 | 0.00 | 0.00 | 84 | 1013.2 |
| 20260505061501 | 75 | 136 | 0.0 | 0.0 | 0.00 | 0.00 | 0.00 | 84 | 1013.5 |
| 20260505061058 | 75 | 136 | 0.0 | 0.0 | 0.00 | 0.00 | 0.00 | 85 | 1013.3 |
| 20260505060558 | 74 | 136 | 0.0 | 0.0 | 0.00 | 0.00 | 0.00 | 85 | 1013.3 |
| 20260505060459 | 74 | 136 | 0.0 | 1.7 | 0.00 | 0.00 | 0.00 | 85 | 1013.6 |
| 20260505060100 | 74 | 136 | 0.0 | 1.7 | 0.00 | 0.00 | 0.00 | 86 | 1013.4 |
| 20260505060006 | 74 | 136 | 0.0 | 1.7 | 0.00 | 0.00 | 0.00 | 86 | 1013.7 |
| 20260505055559 | 74 | 153 | 0.0 | 1.7 | 0.00 | 0.00 | 0.00 | 86 | 1013.4 |
| 20260505055508 | 74 | 32 | 0.0 | 1.7 | 0.00 | 0.00 | 0.00 | 87 | 1013.7 |
| 20260505055059 | 74 | 32 | 0.9 | 1.7 | 0.00 | 0.00 | 0.00 | 87 | 1013.5 |
| 20260505054700 | 74 | 32 | 0.0 | 0.9 | 0.00 | 0.00 | 0.00 | 87 | 1013.5 |
| 20260505054500 | 74 | 32 | 0.0 | 0.0 | 0.00 | 0.00 | 0.00 | 87 | 1013.8 |
| 20260505054100 | 74 | 32 | 0.0 | 0.0 | 0.00 | 0.00 | 0.00 | 87 | 1013.6 |
| 20260505053558 | 74 | 32 | 0.0 | 0.0 | 0.00 | 0.00 | 0.00 | 87 | 1013.6 |
| 20260505053500 | 74 | 32 | 0.0 | 0.0 | 0.00 | 0.00 | 0.00 | 87 | 1013.9 |
| 20260505053158 | 74 | 32 | 0.0 | 0.0 | 0.00 | 0.00 | 0.00 | 87 | 1013.6 |
| 20260505053000 | 74 | 32 | 0.0 | 0.9 | 0.00 | 0.00 | 0.00 | 86 | 1013.9 |
| 20260505052602 | 74 | 32 | 0.0 | 1.7 | 0.00 | 0.00 | 0.00 | 86 | 1013.7 |
| 20260505052059 | 74 | 32 | 0.0 | 1.7 | 0.00 | 0.00 | 0.00 | 86 | 1013.9 |
| 20260505052000 | 74 | 32 | 0.9 | 1.7 | 0.00 | 0.00 | 0.00 | 86 | 1014.1 |
| 20260505051559 | 74 | 32 | 0.0 | 1.7 | 0.00 | 0.00 | 0.00 | 86 | 1013.9 |
| 20260505051059 | 74 | 32 | 0.0 | 1.7 | 0.00 | 0.00 | 0.00 | 86 | 1014.0 |
| 20260505050558 | 74 | 32 | 0.0 | 2.6 | 0.00 | 0.00 | 0.00 | 85 | 1014.0 |
| 20260505050501 | 74 | 32 | 0.9 | 2.6 | 0.00 | 0.00 | 0.00 | 85 | 1014.3 |
| 20260505041559 | 75 | 92 | 0.0 | 3.5 | 0.00 | 0.00 | 0.00 | 86 | 1014.4 |
| 20260505041059 | 74 | 53 | 1.7 | 3.5 | 0.00 | 0.00 | 0.00 | 86 | 1014.5 |
| 20260505041001 | 75 | 98 | 1.7 | 3.5 | 0.00 | 0.00 | 0.00 | 86 | 1014.7 |
| 20260505040604 | 75 | 107 | 1.7 | 3.5 | 0.00 | 0.00 | 0.00 | 86 | 1014.5 |
| 20260505040104 | 75 | 25 | 1.7 | 2.6 | 0.00 | 0.00 | 0.00 | 85 | 1014.6 |
| 20260505035508 | 75 | 48 | 0.9 | 2.6 | 0.00 | 0.00 | 0.00 | 86 | 1014.6 |
| 20260505035504 | 75 | 48 | 0.9 | 2.6 | 0.00 | 0.00 | 0.00 | 86 | 1014.8 |
| 20260505035003 | 75 | 59 | 1.7 | 2.6 | 0.00 | 0.00 | 0.00 | 86 | 1015.0 |
| 20260505034501 | 75 | 43 | 0.9 | 2.6 | 0.00 | 0.00 | 0.00 | 85 | 1014.8 |
| 20260505034003 | 75 | 58 | 2.6 | 2.6 | 0.00 | 0.00 | 0.00 | 85 | 1015.0 |
| 20260505034001 | 75 | 58 | 1.7 | 2.6 | 0.00 | 0.00 | 0.00 | 85 | 1014.8 |
| 20260505033503 | 75 | 91 | 0.9 | 2.6 | 0.00 | 0.00 | 0.00 | 86 | 1015.0 |
| 20260505033003 | 75 | 104 | 0.9 | 1.7 | 0.00 | 0.00 | 0.00 | 86 | 1014.8 |
| 20260505032502 | 76 | 104 | 0.0 | 1.7 | 0.00 | 0.00 | 0.00 | 86 | 1014.8 |
| 20260505032003 | 76 | 104 | 0.9 | 1.7 | 0.00 | 0.00 | 0.00 | 86 | 1015.2 |
| 20260505032001 | 76 | 104 | 0.0 | 1.7 | 0.00 | 0.00 | 0.00 | 86 | 1014.9 |
| 20260505031601 | 76 | 104 | 0.9 | 2.6 | 0.00 | 0.00 | 0.00 | 86 | 1015.0 |
| 20260505031003 | 76 | 96 | 1.7 | 2.6 | 0.00 | 0.00 | 0.00 | 87 | 1015.3 |
| 20260505031001 | 76 | 96 | 0.0 | 2.6 | 0.00 | 0.00 | 0.00 | 87 | 1015.0 |
| 20260505030503 | 76 | 44 | 0.0 | 0.0 | 0.00 | 0.00 | 0.00 | 87 | 1015.3 |
| 20260505030006 | 76 | 44 | 0.0 | 0.9 | 0.00 | 0.00 | 0.00 | 87 | 1015.3 |
| 20260505025502 | 76 | 44 | 0.0 | 0.9 | 0.00 | 0.00 | 0.00 | 86 | 1015.3 |
| 20260505025003 | 76 | 94 | 0.0 | 0.0 | 0.00 | 0.00 | 0.00 | 87 | 1015.3 |
| 20260505024510 | 76 | 17 | 0.0 | 0.0 | 0.00 | 0.00 | 0.00 | 87 | 1015.3 |
| 20260505024503 | 76 | 17 | 0.0 | 0.0 | 0.00 | 0.00 | 0.00 | 87 | 1015.1 |
| 20260505024003 | 76 | 17 | 0.0 | 0.0 | 0.00 | 0.00 | 0.00 | 87 | 1015.0 |
| 20260505023502 | 76 | 26 | 0.0 | 1.7 | 0.00 | 0.00 | 0.00 | 87 | 1015.2 |
| 20260505023010 | 76 | 26 | 0.0 | 1.7 | 0.00 | 0.00 | 0.00 | 87 | 1015.2 |
| 20260505023001 | 76 | 26 | 0.0 | 1.7 | 0.00 | 0.00 | 0.00 | 87 | 1014.9 |
| 20260505022504 | 77 | 26 | 1.7 | 1.7 | 0.00 | 0.00 | 0.00 | 87 | 1015.2 |
| 20260505022004 | 77 | 325 | 1.7 | 1.7 | 0.00 | 0.00 | 0.00 | 87 | 1015.1 |
| 20260505022002 | 77 | 325 | 0.9 | 1.7 | 0.00 | 0.00 | 0.00 | 87 | 1014.9 |
| 20260505021601 | 77 | 325 | 0.9 | 1.7 | 0.00 | 0.00 | 0.00 | 86 | 1014.8 |
| 20260505021003 | 77 | 324 | 0.0 | 1.7 | 0.00 | 0.00 | 0.00 | 86 | 1015.0 |
| 20260505020502 | 77 | 324 | 0.9 | 1.7 | 0.00 | 0.00 | 0.00 | 85 | 1014.9 |
| 20260505020001 | 77 | 324 | 0.0 | 0.9 | 0.00 | 0.00 | 0.00 | 85 | 1014.6 |
| 20260505015502 | 78 | 324 | 0.0 | 0.9 | 0.00 | 0.00 | 0.00 | 85 | 1014.8 |
| 20260505015001 | 78 | 324 | 0.0 | 0.9 | 0.00 | 0.00 | 0.00 | 85 | 1014.6 |
| 20260505014510 | 77 | 324 | 0.0 | 1.7 | 0.00 | 0.00 | 0.00 | 85 | 1014.7 |
| 20260505014505 | 77 | 324 | 0.0 | 1.7 | 0.00 | 0.00 | 0.00 | 85 | 1014.5 |
| 20260505014004 | 78 | 324 | 0.0 | 1.7 | 0.00 | 0.00 | 0.00 | 85 | 1014.7 |
| 20260505013502 | 78 | 325 | 0.0 | 1.7 | 0.00 | 0.00 | 0.00 | 84 | 1014.4 |
| 20260505013002 | 78 | 325 | 0.0 | 0.0 | 0.00 | 0.00 | 0.00 | 84 | 1014.3 |
| 20260505012502 | 78 | 325 | 0.0 | 1.7 | 0.00 | 0.00 | 0.00 | 83 | 1014.5 |
| 20260505012003 | 78 | 325 | 0.9 | 1.7 | 0.00 | 0.00 | 0.00 | 83 | 1014.3 |
| 20260505011603 | 79 | 325 | 0.9 | 1.7 | 0.00 | 0.00 | 0.00 | 82 | 1014.1 |
| 20260505011002 | 79 | 54 | 0.0 | 0.9 | 0.00 | 0.00 | 0.00 | 82 | 1014.3 |
| 20260505010503 | 79 | 54 | 0.0 | 2.6 | 0.00 | 0.00 | 0.00 | 82 | 1014.4 |
| 20260505010501 | 79 | 54 | 0.0 | 2.6 | 0.00 | 0.00 | 0.00 | 82 | 1014.1 |
| 20260505010006 | 80 | 54 | 0.9 | 2.6 | 0.00 | 0.00 | 0.00 | 81 | 1014.2 |
| 20260505005502 | 80 | 54 | 1.7 | 2.6 | 0.00 | 0.00 | 0.00 | 80 | 1014.2 |
| 20260505005002 | 80 | 54 | 0.9 | 2.6 | 0.00 | 0.00 | 0.00 | 79 | 1014.1 |
| 20260505004602 | 80 | 74 | 0.9 | 2.6 | 0.00 | 0.00 | 0.00 | 79 | 1013.7 |
| 20260505004003 | 80 | 64 | 0.9 | 2.6 | 0.00 | 0.00 | 0.00 | 79 | 1013.7 |
| 20260505003507 | 80 | 68 | 0.9 | 2.6 | 0.00 | 0.00 | 0.00 | 78 | 1013.7 |
| 20260505003501 | 80 | 68 | 0.0 | 2.6 | 0.00 | 0.00 | 0.00 | 78 | 1014.0 |
| 20260505003104 | 81 | 81 | 0.9 | 2.6 | 0.00 | 0.00 | 0.00 | 78 | 1013.7 |
| 20260505002502 | 81 | 81 | 0.9 | 1.7 | 0.00 | 0.00 | 0.00 | 77 | 1013.7 |
| 20260505002003 | 81 | 360 | 0.0 | 2.6 | 0.00 | 0.00 | 0.00 | 76 | 1013.9 |
| 20260505001601 | 82 | 65 | 0.0 | 2.6 | 0.00 | 0.00 | 0.00 | 76 | 1013.6 |
| 20260505001002 | 82 | 360 | 0.9 | 3.5 | 0.00 | 0.00 | 0.00 | 74 | 1013.6 |
| 20260505000502 | 83 | 360 | 0.9 | 3.5 | 0.00 | 0.00 | 0.00 | 74 | 1013.8 |
| 20260505000104 | 83 | 360 | 0.9 | 3.5 | 0.00 | 0.00 | 0.00 | 73 | 1013.5 |
| 20260504235504 | 83 | 360 | 0.0 | 3.5 | 0.00 | 0.00 | 0.00 | 73 | 1013.8 |
| 20260504235005 | 83 | 360 | 2.6 | 4.3 | 0.00 | 0.00 | 0.00 | 73 | 1013.7 |
| 20260504235002 | 83 | 360 | 2.6 | 4.3 | 0.00 | 0.00 | 0.00 | 73 | 1013.5 |
| 20260504234502 | 83 | 198 | 2.6 | 4.3 | 0.00 | 0.00 | 0.00 | 72 | 1013.4 |
| 20260504234005 | 83 | 360 | 3.5 | 5.2 | 0.00 | 0.00 | 0.00 | 72 | 1013.7 |
| 20260504234003 | 83 | 360 | 2.6 | 5.2 | 0.00 | 0.00 | 0.00 | 72 | 1013.4 |
| 20260504233502 | 83 | 360 | 1.7 | 4.3 | 0.00 | 0.00 | 0.00 | 71 | 1013.4 |
| 20260504233103 | 83 | 178 | 1.7 | 4.3 | 0.00 | 0.00 | 0.00 | 71 | 1013.4 |
| 20260504232504 | 83 | 131 | 3.5 | 6.1 | 0.00 | 0.00 | 0.00 | 71 | 1013.6 |
| 20260504232502 | 83 | 131 | 2.6 | 6.1 | 0.00 | 0.00 | 0.00 | 71 | 1013.3 |
| 20260504232002 | 84 | 165 | 2.6 | 7.0 | 0.00 | 0.00 | 0.00 | 70 | 1013.4 |
| 20260504231511 | 84 | 133 | 1.7 | 7.0 | 0.00 | 0.00 | 0.00 | 70 | 1013.6 |
| 20260504231506 | 84 | 133 | 3.5 | 7.0 | 0.00 | 0.00 | 0.00 | 70 | 1013.3 |
| 20260504231003 | 84 | 360 | 4.3 | 6.1 | 0.00 | 0.00 | 0.00 | 69 | 1013.5 |
| 20260504230504 | 84 | 154 | 2.6 | 4.3 | 0.00 | 0.00 | 0.00 | 69 | 1013.6 |
| 20260504230502 | 84 | 154 | 1.7 | 4.3 | 0.00 | 0.00 | 0.00 | 69 | 1013.3 |
| 20260504230005 | 84 | 127 | 1.7 | 4.3 | 0.00 | 0.00 | 0.00 | 68 | 1013.3 |
| 20260504225504 | 85 | 121 | 1.7 | 4.3 | 0.00 | 0.00 | 0.00 | 68 | 1013.2 |
| 20260504225002 | 85 | 131 | 0.0 | 5.2 | 0.00 | 0.00 | 0.00 | 67 | 1013.5 |
| 20260504224608 | 85 | 148 | 2.6 | 7.0 | 0.00 | 0.00 | 0.00 | 67 | 1013.2 |
| 20260504224002 | 85 | 128 | 2.6 | 7.0 | 0.00 | 0.00 | 0.00 | 67 | 1013.4 |
| 20260504223504 | 85 | 127 | 2.6 | 7.0 | 0.00 | 0.00 | 0.00 | 66 | 1013.3 |
| 20260504223502 | 85 | 127 | 3.5 | 7.0 | 0.00 | 0.00 | 0.00 | 66 | 1013.0 |
| 20260504223101 | 85 | 141 | 1.7 | 7.8 | 0.00 | 0.00 | 0.00 | 66 | 1013.0 |
| 20260504222502 | 85 | 142 | 3.5 | 7.8 | 0.00 | 0.00 | 0.00 | 66 | 1013.2 |
| 20260504222500 | 85 | 142 | 2.6 | 7.8 | 0.00 | 0.00 | 0.00 | 66 | 1013.0 |
| 20260504222002 | 85 | 89 | 3.5 | 7.8 | 0.00 | 0.00 | 0.00 | 65 | 1012.9 |
| 20260504221501 | 85 | 107 | 3.5 | 7.0 | 0.00 | 0.00 | 0.00 | 66 | 1012.8 |
| 20260504221003 | 85 | 92 | 2.6 | 8.7 | 0.00 | 0.00 | 0.00 | 66 | 1013.0 |
| 20260504221001 | 85 | 92 | 2.6 | 8.7 | 0.00 | 0.00 | 0.00 | 66 | 1012.7 |
| 20260504220502 | 85 | 118 | 3.5 | 8.7 | 0.00 | 0.00 | 0.00 | 65 | 1013.0 |
| 20260504220101 | 85 | 118 | 4.3 | 8.7 | 0.00 | 0.00 | 0.00 | 65 | 1012.7 |
| 20260504215601 | 86 | 132 | 4.3 | 10.4 | 0.00 | 0.00 | 0.00 | 65 | 1012.6 |
| 20260504215502 | 86 | 131 | 3.5 | 10.4 | 0.00 | 0.00 | 0.00 | 64 | 1012.8 |
| 20260504215059 | 86 | 130 | 1.7 | 7.8 | 0.00 | 0.00 | 0.00 | 65 | 1012.5 |
| 20260504214604 | 85 | 127 | 4.3 | 8.7 | 0.00 | 0.00 | 0.00 | 65 | 1012.5 |
| 20260504214100 | 86 | 130 | 4.3 | 8.7 | 0.00 | 0.00 | 0.00 | 65 | 1012.5 |
| 20260504214000 | 86 | 104 | 2.6 | 8.7 | 0.00 | 0.00 | 0.00 | 65 | 1012.7 |
| 20260504213502 | 86 | 87 | 3.5 | 8.7 | 0.00 | 0.00 | 0.00 | 65 | 1012.7 |
| 20260504213105 | 86 | 102 | 3.5 | 7.0 | 0.00 | 0.00 | 0.00 | 64 | 1012.3 |
| 20260504213009 | 86 | 107 | 7.0 | 7.0 | 0.00 | 0.00 | 0.00 | 63 | 1012.6 |
| 20260504212559 | 86 | 123 | 3.5 | 8.7 | 0.00 | 0.00 | 0.00 | 63 | 1012.3 |
| 20260504212501 | 86 | 111 | 3.5 | 10.4 | 0.00 | 0.00 | 0.00 | 63 | 1012.6 |
| 20260504212002 | 86 | 144 | 2.6 | 10.4 | 0.00 | 0.00 | 0.00 | 63 | 1012.6 |
| 20260504211605 | 86 | 101 | 5.2 | 10.4 | 0.00 | 0.00 | 0.00 | 62 | 1012.4 |
| 20260504211059 | 86 | 147 | 4.3 | 10.4 | 0.00 | 0.00 | 0.00 | 63 | 1012.3 |
| 20260504211002 | 87 | 86 | 7.0 | 10.4 | 0.00 | 0.00 | 0.00 | 63 | 1012.5 |
| 20260504211000 | 87 | 86 | 4.3 | 10.4 | 0.00 | 0.00 | 0.00 | 63 | 1012.3 |
| 20260504210602 | 87 | 107 | 4.3 | 13.0 | 0.00 | 0.00 | 0.00 | 65 | 1012.3 |
| 20260504210502 | 86 | 131 | 2.6 | 13.0 | 0.00 | 0.00 | 0.00 | 65 | 1012.5 |
| 20260504210106 | 86 | 127 | 7.0 | 13.0 | 0.00 | 0.00 | 0.00 | 64 | 1012.3 |
| 20260504210001 | 87 | 114 | 7.0 | 13.0 | 0.00 | 0.00 | 0.00 | 64 | 1012.3 |
| 20260504205503 | 87 | 168 | 5.2 | 9.6 | 0.00 | 0.00 | 0.00 | 63 | 1012.3 |
| 20260504205002 | 88 | 98 | 5.2 | 9.6 | 0.00 | 0.00 | 0.00 | 63 | 1012.4 |
| 20260504205000 | 88 | 98 | 4.3 | 9.6 | 0.00 | 0.00 | 0.00 | 63 | 1012.2 |
| 20260504204639 | 87 | 95 | 4.3 | 9.6 | 0.00 | 0.00 | 0.00 | 63 | 1012.2 |
| 20260504204002 | 88 | 159 | 4.3 | 13.0 | 0.00 | 0.00 | 0.00 | 61 | 1012.2 |
| 20260504203502 | 88 | 134 | 2.6 | 13.0 | 0.00 | 0.00 | 0.00 | 61 | 1012.5 |
| 20260504203102 | 88 | 94 | 3.5 | 8.7 | 0.00 | 0.00 | 0.00 | 60 | 1012.2 |
| 20260504202502 | 88 | 182 | 3.5 | 10.4 | 0.00 | 0.00 | 0.00 | 59 | 1012.5 |
| 20260504202005 | 88 | 151 | 3.5 | 10.4 | 0.00 | 0.00 | 0.00 | 58 | 1012.5 |
| 20260504202003 | 88 | 151 | 4.3 | 10.4 | 0.00 | 0.00 | 0.00 | 58 | 1012.2 |
| 20260504201602 | 89 | 169 | 4.3 | 9.6 | 0.00 | 0.00 | 0.00 | 58 | 1012.3 |
| 20260504201004 | 89 | 107 | 4.3 | 10.4 | 0.00 | 0.00 | 0.00 | 58 | 1012.3 |
| 20260504200501 | 88 | 153 | 3.5 | 12.2 | 0.00 | 0.00 | 0.00 | 58 | 1012.2 |
| 20260504200009 | 89 | 162 | 6.1 | 13.9 | 0.00 | 0.00 | 0.00 | 58 | 1012.3 |
| 20260504200004 | 89 | 162 | 4.3 | 13.9 | 0.00 | 0.00 | 0.00 | 58 | 1012.5 |
| 20260504195559 | 88 | 101 | 6.1 | 13.9 | 0.00 | 0.00 | 0.00 | 57 | 1012.3 |
| 20260504195501 | 88 | 106 | 6.1 | 13.0 | 0.00 | 0.00 | 0.00 | 57 | 1012.6 |
| 20260504195200 | 88 | 204 | 3.5 | 9.6 | 0.00 | 0.00 | 0.00 | 57 | 1012.3 |
| 20260504195001 | 88 | 114 | 6.1 | 10.4 | 0.00 | 0.00 | 0.00 | 57 | 1012.6 |
| 20260504194600 | 88 | 128 | 4.3 | 13.0 | 0.00 | 0.00 | 0.00 | 56 | 1012.4 |
| 20260504194103 | 89 | 146 | 5.2 | 13.0 | 0.00 | 0.00 | 0.00 | 56 | 1012.4 |
| 20260504194001 | 89 | 127 | 6.1 | 13.0 | 0.00 | 0.00 | 0.00 | 55 | 1012.6 |
| 20260504193601 | 88 | 143 | 6.1 | 13.0 | 0.00 | 0.00 | 0.00 | 56 | 1012.5 |
| 20260504193501 | 88 | 168 | 6.1 | 13.0 | 0.00 | 0.00 | 0.00 | 55 | 1012.7 |
| 20260504193100 | 89 | 122 | 7.0 | 13.0 | 0.00 | 0.00 | 0.00 | 56 | 1012.5 |
| 20260504193008 | 89 | 167 | 7.8 | 13.0 | 0.00 | 0.00 | 0.00 | 56 | 1012.7 |
| 20260504192559 | 89 | 121 | 6.1 | 10.4 | 0.00 | 0.00 | 0.00 | 56 | 1012.5 |
| 20260504192501 | 89 | 133 | 7.0 | 13.0 | 0.00 | 0.00 | 0.00 | 56 | 1012.7 |
| 20260504192005 | 88 | 189 | 4.3 | 13.0 | 0.00 | 0.00 | 0.00 | 57 | 1012.5 |
| 20260504192003 | 88 | 189 | 6.1 | 13.0 | 0.00 | 0.00 | 0.00 | 57 | 1012.8 |
| 20260504191600 | 88 | 113 | 7.0 | 12.2 | 0.00 | 0.00 | 0.00 | 57 | 1012.6 |
| 20260504191101 | 88 | 119 | 7.0 | 11.3 | 0.00 | 0.00 | 0.00 | 58 | 1012.6 |
| 20260504191001 | 89 | 118 | 6.1 | 11.3 | 0.00 | 0.00 | 0.00 | 58 | 1012.9 |
| 20260504190702 | 89 | 157 | 5.2 | 13.0 | 0.00 | 0.00 | 0.00 | 58 | 1012.6 |
| 20260504185600 | 88 | 131 | 6.1 | 15.6 | 0.00 | 0.00 | 0.00 | 58 | 1012.5 |
| 20260504185501 | 88 | 120 | 7.0 | 15.6 | 0.00 | 0.00 | 0.00 | 58 | 1012.8 |
| 20260504185001 | 88 | 133 | 2.6 | 13.0 | 0.00 | 0.00 | 0.00 | 57 | 1012.9 |
| 20260504184606 | 89 | 140 | 7.0 | 13.9 | 0.00 | 0.00 | 0.00 | 56 | 1012.8 |
| 20260504184100 | 89 | 129 | 7.0 | 13.9 | 0.00 | 0.00 | 0.00 | 57 | 1012.8 |
| 20260504183600 | 88 | 132 | 7.8 | 13.9 | 0.00 | 0.00 | 0.00 | 57 | 1012.7 |
| 20260504183501 | 88 | 127 | 11.3 | 14.8 | 0.00 | 0.00 | 0.00 | 57 | 1013.0 |
| 20260504183102 | 88 | 124 | 7.0 | 14.8 | 0.00 | 0.00 | 0.00 | 57 | 1012.8 |
| 20260504182600 | 90 | 105 | 6.1 | 14.8 | 0.00 | 0.00 | 0.00 | 54 | 1012.8 |
| 20260504182500 | 90 | 107 | 9.6 | 13.9 | 0.00 | 0.00 | 0.00 | 55 | 1013.1 |
| 20260504182059 | 89 | 112 | 6.1 | 15.6 | 0.00 | 0.00 | 0.00 | 55 | 1012.9 |
| 20260504182001 | 89 | 102 | 5.2 | 15.6 | 0.00 | 0.00 | 0.00 | 55 | 1013.1 |
| 20260504181600 | 89 | 103 | 7.8 | 15.6 | 0.00 | 0.00 | 0.00 | 54 | 1012.8 |
| 20260504181103 | 90 | 43 | 7.0 | 13.9 | 0.00 | 0.00 | 0.00 | 53 | 1012.9 |
| 20260504181003 | 90 | 126 | 10.4 | 13.9 | 0.00 | 0.00 | 0.00 | 54 | 1013.1 |
| 20260504180601 | 90 | 146 | 8.7 | 15.6 | 0.00 | 0.00 | 0.00 | 53 | 1013.0 |
| 20260504180501 | 90 | 121 | 10.4 | 15.6 | 0.00 | 0.00 | 0.00 | 53 | 1013.2 |
| 20260504180100 | 90 | 141 | 6.1 | 15.6 | 0.00 | 0.00 | 0.00 | 53 | 1013.0 |
| 20260504175604 | 90 | 142 | 6.1 | 14.8 | 0.00 | 0.00 | 0.00 | 52 | 1013.0 |
| 20260504175501 | 90 | 117 | 12.2 | 14.8 | 0.00 | 0.00 | 0.00 | 52 | 1013.3 |
| 20260504175003 | 90 | 124 | 7.8 | 18.2 | 0.00 | 0.00 | 0.00 | 53 | 1013.3 |
| 20260504175001 | 90 | 124 | 5.2 | 18.2 | 0.00 | 0.00 | 0.00 | 53 | 1013.0 |
| 20260504174600 | 90 | 87 | 7.0 | 18.2 | 0.00 | 0.00 | 0.00 | 51 | 1013.1 |
| 20260504174101 | 90 | 113 | 7.0 | 14.8 | 0.00 | 0.00 | 0.00 | 51 | 1013.0 |
| 20260504174002 | 90 | 152 | 7.0 | 17.4 | 0.00 | 0.00 | 0.00 | 51 | 1013.1 |
| 20260504173559 | 90 | 94 | 7.0 | 17.4 | 0.00 | 0.00 | 0.00 | 51 | 1013.2 |
| 20260504173501 | 90 | 38 | 11.3 | 17.4 | 0.00 | 0.00 | 0.00 | 51 | 1013.4 |
| 20260504173102 | 91 | 69 | 7.8 | 17.4 | 0.00 | 0.00 | 0.00 | 49 | 1013.3 |
| 20260504172602 | 91 | 76 | 6.1 | 13.0 | 0.00 | 0.00 | 0.00 | 49 | 1013.3 |
| 20260504172502 | 91 | 135 | 4.3 | 13.9 | 0.00 | 0.00 | 0.00 | 49 | 1013.6 |
| 20260504172100 | 91 | 141 | 5.2 | 14.8 | 0.00 | 0.00 | 0.00 | 49 | 1013.3 |
| 20260504172002 | 91 | 169 | 9.6 | 14.8 | 0.00 | 0.00 | 0.00 | 49 | 1013.7 |
| 20260504171559 | 90 | 97 | 7.0 | 16.5 | 0.00 | 0.00 | 0.00 | 49 | 1013.4 |
| 20260504171100 | 90 | 47 | 9.6 | 16.5 | 0.00 | 0.00 | 0.00 | 48 | 1013.6 |
| 20260504171000 | 90 | 110 | 10.4 | 16.5 | 0.00 | 0.00 | 0.00 | 49 | 1013.8 |
| 20260504170659 | 90 | 126 | 7.0 | 16.5 | 0.00 | 0.00 | 0.00 | 48 | 1013.7 |
| 20260504151059 | 89 | 113 | 7.8 | 16.5 | 0.00 | 0.00 | 0.00 | 51 | 1014.1 |
| 20260504151001 | 89 | 125 | 7.8 | 16.5 | 0.00 | 0.00 | 0.00 | 52 | 1014.3 |
| 20260504150602 | 89 | 68 | 9.6 | 16.5 | 0.00 | 0.00 | 0.00 | 54 | 1014.2 |
| 20260504150502 | 89 | 113 | 13.0 | 15.6 | 0.00 | 0.00 | 0.00 | 54 | 1014.4 |
| 20260504150106 | 89 | 108 | 9.6 | 15.6 | 0.00 | 0.00 | 0.00 | 56 | 1014.1 |
| 20260504141102 | 88 | 136 | 7.0 | 16.5 | 0.00 | 0.00 | 0.00 | 56 | 1014.4 |
| 20260504141001 | 88 | 119 | 4.3 | 16.5 | 0.00 | 0.00 | 0.00 | 56 | 1014.6 |
| 20260504140659 | 87 | 127 | 10.4 | 16.5 | 0.00 | 0.00 | 0.00 | 55 | 1014.4 |
| 20260504130603 | 85 | 44 | 7.0 | 14.8 | 0.00 | 0.00 | 0.00 | 64 | 1014.2 |
| 20260504130501 | 85 | 119 | 7.0 | 14.8 | 0.00 | 0.00 | 0.00 | 64 | 1014.4 |
| 20260504110600 | 73 | 51 | 0.0 | 0.0 | 0.00 | 0.00 | 0.00 | 86 | 1014.4 |
| 20260504110502 | 73 | 46 | 0.0 | 0.0 | 0.00 | 0.00 | 0.00 | 86 | 1014.6 |
| 20260504100602 | 70 | 80 | 0.0 | 0.0 | 0.00 | 0.00 | 0.00 | 91 | 1014.0 |
| 20260504100501 | 70 | 80 | 0.0 | 0.0 | 0.00 | 0.00 | 0.00 | 92 | 1014.2 |
| 20260504082001 | 71 | 80 | 0.0 | 0.0 | 0.00 | 0.00 | 0.00 | 91 | 1013.6 |
| 20260504081601 | 71 | 80 | 0.0 | 0.0 | 0.00 | 0.00 | 0.00 | 90 | 1013.5 |
| 20260504081503 | 71 | 80 | 0.0 | 0.0 | 0.00 | 0.00 | 0.00 | 90 | 1013.7 |
| 20260504081100 | 71 | 80 | 0.0 | 0.0 | 0.00 | 0.00 | 0.00 | 91 | 1013.4 |